GW2788 Weather Reports


time (UTC)temp
C
wind
direction
speed
KPH
gust
KPH
rain 1hr
cm
rain 24hr
cm
rain mn
cm
humidity
%
barometer
mb
20260508185020 15 169 6.4 11.3 0.00 0.00 0.00 41 1014.8
20260508184537 15 0 3.2 14.5 0.00 0.00 0.00 43 1014.9
20260508184019 14 193 3.2 16.1 0.00 0.00 0.00 50 1015.1
20260508183520 15 154 8.0 17.7 0.00 0.00 0.00 45 1015.1
20260508183039 15 233 6.4 17.7 0.00 0.00 0.00 43 1015.1
20260508182521 15 106 4.8 16.1 0.00 0.00 0.00 42 1015.1
20260508182020 14 226 4.8 16.1 0.00 0.00 0.00 44 1015.1
20260508181534 15 108 6.4 14.5 0.00 0.00 0.00 44 1015.2
20260508181019 15 290 6.4 14.5 0.00 0.00 0.00 43 1015.1
20260508180519 14 0 3.2 20.9 0.00 0.00 0.00 45 1015.2
20260508180039 14 172 4.8 20.9 0.00 0.00 0.00 48 1015.2
20260508175520 13 141 12.9 20.9 0.00 0.00 0.00 47 1015.2
20260508175023 13 86 11.3 17.7 0.00 0.00 0.00 44 1015.2
20260508174551 13 281 8.0 17.7 0.00 0.00 0.00 45 1015.4
20260508174024 13 71 11.3 17.7 0.00 0.00 0.00 45 1015.5
20260508173520 13 148 4.8 19.3 0.00 0.00 0.00 47 1015.5
20260508173035 13 154 6.4 19.3 0.00 0.00 0.00 45 1015.6
20260508172520 13 101 8.0 20.9 0.00 0.00 0.00 46 1015.6
20260508172022 12 101 8.0 20.9 0.00 0.00 0.00 46 1015.7
20260508171546 12 97 8.0 20.9 0.00 0.00 0.00 45 1015.7
20260508171020 12 91 11.3 22.5 0.00 0.00 0.00 41 1015.9
20260508170520 13 163 12.9 24.1 0.00 0.00 0.00 42 1016.0
20260508170039 13 129 9.7 24.1 0.00 0.00 0.00 44 1016.0
20260508165520 12 200 11.3 24.1 0.00 0.00 0.00 47 1016.1
20260508165020 12 110 9.7 20.9 0.00 0.00 0.00 43 1016.1
20260508164541 12 86 6.4 22.5 0.00 0.00 0.00 47 1016.2
20260508164020 12 89 16.1 22.5 0.00 0.00 0.00 45 1016.3
20260508163521 12 91 9.7 24.1 0.00 0.00 0.00 43 1016.3
20260508163036 12 154 6.4 24.1 0.00 0.00 0.00 49 1016.3
20260508162520 12 98 12.9 24.1 0.00 0.00 0.00 47 1016.3
20260508162019 12 129 9.7 17.7 0.00 0.00 0.00 46 1016.3
20260508161542 12 148 8.0 24.1 0.00 0.00 0.00 43 1016.4
20260508161021 12 238 9.7 24.1 0.00 0.00 0.00 45 1016.5
20260508160521 11 65 12.9 24.1 0.00 0.00 0.00 46 1016.6
20260508160037 11 95 12.9 19.3 0.00 0.00 0.00 48 1016.6
20260508155521 11 86 9.7 19.3 0.00 0.00 0.00 44 1016.8
20260508155019 11 110 9.7 24.1 0.00 0.00 0.00 43 1016.8
20260508154532 11 91 12.9 27.4 0.00 0.00 0.00 48 1016.8
20260508154022 11 62 12.9 27.4 0.00 0.00 0.00 48 1016.7
20260508153521 11 96 11.3 20.9 0.00 0.00 0.00 46 1016.8
20260508153042 11 103 6.4 19.3 0.00 0.00 0.00 49 1016.8
20260508152520 11 125 9.7 20.9 0.00 0.00 0.00 46 1016.8
20260508152020 11 99 11.3 24.1 0.00 0.00 0.00 47 1016.9
20260508151542 11 113 14.5 24.1 0.00 0.00 0.00 46 1016.9
20260508151021 11 53 12.9 24.1 0.00 0.00 0.00 49 1016.7
20260508150520 11 90 11.3 20.9 0.00 0.00 0.00 49 1016.8
20260508150032 11 104 11.3 17.7 0.00 0.00 0.00 54 1016.9
20260508145520 12 78 6.4 16.1 0.00 0.00 0.00 53 1016.7
20260508145026 12 101 6.4 11.3 0.00 0.00 0.00 51 1016.8
20260508144537 12 106 1.6 9.7 0.00 0.00 0.00 51 1016.8
20260508144020 11 126 1.6 9.7 0.00 0.00 0.00 45 1016.8
20260508143522 11 249 3.2 6.4 0.00 0.00 0.00 46 1016.7
20260508143038 11 29 1.6 6.4 0.00 0.00 0.00 40 1016.7
20260508142523 11 0 0.0 8.0 0.00 0.00 0.00 42 1016.8
20260508142020 11 157 3.2 11.3 0.00 0.00 0.00 42 1016.9
20260508141537 10 97 6.4 11.3 0.00 0.00 0.00 44 1016.8
20260508141019 11 236 4.8 9.7 0.00 0.00 0.00 42 1016.8
20260508140520 11 188 3.2 8.0 0.00 0.00 0.00 41 1016.8
20260508140035 10 148 0.0 4.8 0.00 0.00 0.00 45 1016.9
20260508135522 10 239 1.6 8.0 0.00 0.00 0.00 45 1016.9
20260508135019 10 323 1.6 8.0 0.00 0.00 0.00 44 1016.9
20260508134535 10 218 4.8 8.0 0.00 0.00 0.00 41 1016.9
20260508134019 10 269 1.6 6.4 0.00 0.00 0.00 45 1016.8
20260508133521 10 210 3.2 6.4 0.00 0.00 0.00 43 1016.8
20260508133057 10 0 1.6 8.0 0.00 0.00 0.00 47 1016.8
20260508132521 9 208 3.2 8.0 0.00 0.00 0.00 46 1016.8
20260508132025 10 136 3.2 8.0 0.00 0.00 0.00 51 1016.6
20260508131538 9 114 1.6 4.8 0.00 0.00 0.00 53 1016.7
20260508131022 8 262 0.0 4.8 0.00 0.00 0.00 55 1016.7
20260508130522 8 217 1.6 4.8 0.00 0.00 0.00 56 1016.7
20260508130035 8 152 1.6 4.8 0.00 0.00 0.00 58 1016.6
20260508125520 7 304 0.0 6.4 0.00 0.00 0.00 59 1016.5
20260508125025 7 326 3.2 6.4 0.00 0.00 0.00 59 1016.6
20260508124536 7 300 3.2 6.4 0.00 0.00 0.00 64 1016.6
20260508124019 7 295 3.2 6.4 0.00 0.00 0.00 62 1016.5
20260508123523 7 307 1.6 6.4 0.00 0.00 0.00 62 1016.5
20260508123039 7 0 1.6 6.4 0.00 0.00 0.00 68 1016.4
20260508122519 7 319 1.6 4.8 0.00 0.00 0.00 68 1016.5
20260508122021 7 0 0.0 3.2 0.00 0.00 0.00 73 1016.4
20260508121536 7 76 0.0 1.6 0.00 0.00 0.00 78 1016.4
20260508121020 6 28 0.0 1.6 0.00 0.00 0.00 80 1016.4
20260508120521 6 0 0.0 0.0 0.00 0.00 0.00 81 1016.2
20260508120043 6 0 0.0 0.0 0.00 0.00 0.00 82 1016.2
20260508115522 6 0 0.0 0.0 0.00 0.08 0.00 83 1016.2
20260508115019 5 0 0.0 0.0 0.00 0.08 0.00 84 1016.2
20260508114535 5 0 0.0 0.0 0.00 0.08 0.00 85 1016.1
20260508114023 4 0 0.0 0.0 0.00 0.08 0.00 85 1015.8
20260508113520 4 0 0.0 0.0 0.00 0.08 0.00 84 1015.8
20260508113039 5 0 0.0 0.0 0.00 0.08 0.00 87 1015.7
20260508112520 3 0 0.0 3.2 0.00 0.08 0.00 88 1015.6
20260508112021 3 0 0.0 3.2 0.00 0.08 0.00 87 1015.6
20260508111540 3 342 0.0 3.2 0.00 0.08 0.00 87 1015.5
20260508111020 3 0 0.0 4.8 0.00 0.08 0.00 87 1015.4
20260508110521 3 0 1.6 4.8 0.00 0.08 0.00 89 1015.3
20260508110034 2 51 1.6 3.2 0.00 0.08 0.00 92 1015.2
20260508105520 2 70 3.2 3.2 0.00 0.15 0.00 93 1015.1
20260508105026 2 0 0.0 1.6 0.00 0.15 0.00 92 1015.1
20260508104533 2 94 1.6 3.2 0.00 0.15 0.00 91 1015.1
20260508104019 2 0 1.6 4.8 0.00 0.15 0.00 89 1014.9
20260508103520 2 75 3.2 4.8 0.00 0.15 0.00 88 1014.8
20260508103037 3 55 0.0 3.2 0.00 0.15 0.00 87 1014.7
20260508102519 3 349 0.0 4.8 0.00 0.15 0.00 86 1014.6
20260508102020 3 0 0.0 4.8 0.00 0.15 0.00 86 1014.5
20260508101543 3 303 0.0 9.7 0.00 0.15 0.00 86 1014.5
20260508101022 3 293 3.2 9.7 0.00 0.15 0.00 86 1014.4
20260508100521 3 313 3.2 11.3 0.00 0.15 0.00 87 1014.3
20260508100034 3 311 4.8 11.3 0.00 0.15 0.00 87 1014.2
20260508095520 3 319 4.8 11.3 0.00 0.18 0.00 87 1014.1
20260508095020 3 307 4.8 12.9 0.00 0.18 0.00 86 1014.1
20260508094535 3 331 6.4 12.9 0.00 0.18 0.00 86 1014.1
20260508094021 3 288 6.4 12.9 0.00 0.18 0.00 85 1014.2
20260508093521 4 311 3.2 11.3 0.00 0.18 0.00 85 1014.2
20260508093037 4 330 6.4 12.9 0.00 0.18 0.00 85 1014.2
20260508092521 4 299 6.4 12.9 0.00 0.18 0.00 86 1014.1
20260508092021 4 304 6.4 19.3 0.00 0.18 0.00 86 1014.1
20260508091604 4 279 6.4 19.3 0.00 0.18 0.00 86 1014.0
20260508091021 4 233 6.4 12.9 0.00 0.18 0.00 86 1013.8
20260508090520 4 299 3.2 14.5 0.00 0.18 0.00 86 1013.8
20260508090036 4 293 6.4 14.5 0.00 0.18 0.00 85 1013.9
20260508085521 4 297 6.4 14.5 0.00 0.18 0.00 87 1013.9
20260508085021 4 328 4.8 12.9 0.00 0.18 0.00 88 1013.9
20260508084535 4 310 6.4 12.9 0.00 0.18 0.00 89 1014.0
20260508084030 4 319 1.6 11.3 0.00 0.18 0.00 90 1014.1
20260508083522 4 307 4.8 11.3 0.00 0.18 0.00 90 1013.9
20260508083038 4 273 1.6 8.0 0.00 0.18 0.00 91 1013.9
20260508082522 4 245 1.6 8.0 0.00 0.18 0.00 91 1013.9
20260508082021 4 304 3.2 8.0 0.00 0.18 0.00 91 1013.9
20260508081545 4 291 1.6 8.0 0.00 0.18 0.00 91 1013.9
20260508081021 4 302 1.6 6.4 0.00 0.18 0.00 92 1014.0
20260508080521 4 268 1.6 8.0 0.00 0.18 0.00 91 1013.9
20260508080038 4 0 3.2 9.7 0.00 0.18 0.00 91 1014.0
20260508075520 4 319 1.6 12.9 0.00 0.18 0.00 91 1014.0
20260508075025 5 287 4.8 12.9 0.00 0.18 0.00 91 1013.9
20260508074535 5 321 4.8 12.9 0.00 0.18 0.00 91 1013.8
20260508074022 5 289 6.4 12.9 0.00 0.18 0.00 91 1013.9
20260508073520 5 313 4.8 12.9 0.00 0.18 0.00 92 1013.8
20260508073036 5 326 3.2 12.9 0.00 0.18 0.00 92 1013.7
20260508072522 5 0 1.6 11.3 0.00 0.18 0.00 91 1013.8
20260508072021 5 308 1.6 12.9 0.00 0.18 0.00 91 1013.6
20260508071540 5 297 4.8 12.9 0.00 0.18 0.00 91 1013.7
20260508071025 5 300 1.6 12.9 0.00 0.18 0.00 91 1013.6
20260508070525 5 273 4.8 12.9 0.00 0.18 0.00 90 1013.5
20260508070039 5 358 8.0 14.5 0.00 0.18 0.00 90 1013.6
20260508065521 5 313 6.4 14.5 0.00 0.18 0.00 89 1013.5
20260508065022 5 288 4.8 20.9 0.00 0.18 0.00 89 1013.6
20260508064538 5 323 6.4 20.9 0.00 0.18 0.00 89 1013.6
20260508064023 5 319 6.4 20.9 0.00 0.18 0.00 88 1013.6
20260508063521 6 8 6.4 17.7 0.00 0.18 0.00 87 1013.6
20260508063105 6 298 6.4 20.9 0.00 0.18 0.00 87 1013.7
20260508062526 6 248 9.7 22.5 0.00 0.18 0.00 86 1013.6
20260508062021 6 321 6.4 22.5 0.00 0.18 0.00 86 1013.6
20260508061540 6 311 4.8 22.5 0.00 0.18 0.00 86 1013.6
20260508061022 6 330 8.0 22.5 0.00 0.18 0.00 86 1013.7
20260508060525 6 327 8.0 24.1 0.00 0.18 0.00 85 1013.5
20260508060038 6 307 9.7 24.1 0.00 0.18 0.00 86 1013.8
20260508055521 6 295 9.7 24.1 0.00 0.18 0.00 87 1013.7
20260508055022 6 32 9.7 20.9 0.00 0.18 0.00 87 1013.7
20260508054535 6 284 11.3 20.9 0.00 0.18 0.00 86 1013.8
20260508054019 6 241 4.8 19.3 0.00 0.18 0.00 85 1013.6
20260508053520 7 312 4.8 19.3 0.00 0.18 0.00 84 1013.6
20260508053050 7 314 6.4 19.3 0.00 0.18 0.00 83 1013.8
20260508052521 7 321 8.0 30.6 0.00 0.18 0.00 83 1013.7
20260508052022 7 27 1.6 30.6 0.00 0.18 0.00 83 1013.6
20260508051557 7 271 4.8 27.4 0.00 0.18 0.00 83 1013.6
20260508051021 7 298 4.8 19.3 0.00 0.18 0.00 83 1013.7
20260508050522 7 205 4.8 20.9 0.00 0.18 0.00 83 1013.6
20260508050039 7 243 9.7 24.1 0.00 0.18 0.00 84 1013.7
20260508045521 7 12 4.8 24.1 0.00 0.20 0.00 83 1013.6
20260508045025 7 322 8.0 25.7 0.00 0.20 0.00 83 1013.6
20260508044537 7 257 9.7 25.7 0.00 0.20 0.00 82 1013.7
20260508044022 7 303 8.0 25.7 0.00 0.20 0.00 82 1013.7
20260508043521 7 323 6.4 25.7 0.00 0.20 0.00 82 1013.5
20260508043035 7 2 9.7 25.7 0.00 0.20 0.00 82 1013.5
20260508042521 7 240 8.0 22.5 0.00 0.20 0.00 82 1013.6
20260508042024 7 317 9.7 22.5 0.00 0.20 0.00 82 1013.6
20260508041536 7 307 9.7 22.5 0.00 0.20 0.00 83 1013.6
20260508041021 7 330 8.0 17.7 0.00 0.20 0.00 84 1013.6
20260508040522 7 268 8.0 17.7 0.00 0.20 0.00 84 1013.7
20260508040034 7 300 9.7 17.7 0.00 0.20 0.00 84 1013.6
20260508035520 7 319 6.4 16.1 0.00 0.23 0.20 85 1013.7
20260508035021 7 348 6.4 16.1 0.00 0.23 0.20 85 1013.6
20260508034538 7 328 6.4 19.3 0.00 0.23 0.20 85 1013.5
20260508034020 7 284 9.7 19.3 0.00 0.23 0.20 84 1013.5
20260508033520 7 290 8.0 16.1 0.00 0.23 0.20 86 1013.5
20260508033044 7 314 6.4 20.9 0.00 0.23 0.20 85 1013.5
20260508032519 7 248 8.0 20.9 0.00 0.23 0.20 85 1013.8
20260508032020 7 290 8.0 17.7 0.00 0.23 0.20 85 1013.7
20260508031538 7 317 9.7 17.7 0.00 0.23 0.20 86 1013.7
20260508031020 7 277 6.4 16.1 0.00 0.23 0.20 87 1013.6
20260508030521 7 273 4.8 16.1 0.00 0.23 0.20 87 1013.6
20260508030043 7 304 6.4 16.1 0.00 0.23 0.20 87 1013.6
20260508025520 7 292 4.8 20.9 0.00 0.25 0.20 87 1013.6
20260508025020 7 246 8.0 24.1 0.00 0.25 0.20 86 1013.5
20260508024538 7 321 8.0 24.1 0.00 0.25 0.20 87 1013.4
20260508024021 7 332 8.0 19.3 0.00 0.25 0.20 87 1013.2
20260508023521 7 309 8.0 19.3 0.00 0.25 0.20 87 1013.1
20260508023036 7 309 8.0 19.3 0.00 0.25 0.20 86 1013.1
20260508022520 7 308 9.7 19.3 0.00 0.25 0.20 86 1013.3
20260508022020 7 281 6.4 25.7 0.00 0.25 0.20 87 1013.3
20260508021538 7 303 8.0 25.7 0.00 0.25 0.20 88 1013.2
20260508021027 7 265 8.0 25.7 0.00 0.25 0.20 88 1013.1
20260508020519 7 293 8.0 22.5 0.00 0.25 0.20 88 1013.1
20260508020036 7 287 6.4 19.3 0.00 0.25 0.20 88 1013.1
20260508015519 7 320 4.8 19.3 0.00 0.43 0.20 88 1013.0
20260508015020 7 304 9.7 19.3 0.00 0.43 0.20 88 1012.9
20260508014535 7 290 8.0 16.1 0.00 0.43 0.20 88 1012.7
20260508014020 6 314 9.7 17.7 0.00 0.43 0.20 88 1012.8
20260508013521 6 298 8.0 17.7 0.00 0.43 0.20 88 1012.8
20260508013039 6 322 4.8 17.7 0.00 0.43 0.20 89 1012.6
20260508012521 6 257 6.4 17.7 0.00 0.43 0.20 89 1012.5
20260508012020 6 323 6.4 16.1 0.00 0.43 0.20 88 1012.3
20260508011540 6 301 6.4 14.5 0.00 0.43 0.20 88 1012.4
20260508011021 6 309 6.4 16.1 0.00 0.43 0.20 88 1012.3
20260508010524 6 331 6.4 19.3 0.00 0.43 0.20 88 1012.1
20260508010053 7 261 4.8 19.3 0.00 0.43 0.20 88 1012.2
20260508005523 7 333 11.3 19.3 0.00 0.46 0.20 88 1012.2
20260508005021 6 327 8.0 19.3 0.00 0.46 0.20 88 1012.0
20260508004535 6 224 6.4 20.9 0.00 0.46 0.20 88 1011.8
20260508004019 6 279 8.0 20.9 0.00 0.46 0.20 88 1011.6
20260508003520 7 245 8.0 19.3 0.00 0.46 0.20 88 1011.8
20260508003031 7 320 6.4 17.7 0.00 0.46 0.20 88 1011.6
20260508002522 7 309 8.0 17.7 0.00 0.46 0.20 88 1011.6
20260508002021 7 300 8.0 17.7 0.00 0.46 0.20 88 1011.6
20260508001537 7 271 8.0 16.1 0.00 0.46 0.20 88 1011.6
20260508001021 7 316 6.4 14.5 0.00 0.46 0.20 88 1011.6
20260508000521 7 263 6.4 14.5 0.00 0.46 0.20 88 1011.7
20260508000044 7 309 6.4 17.7 0.00 0.46 0.20 88 1011.8
20260507235524 7 310 6.4 17.7 0.00 0.69 0.20 87 1011.8
20260507235024 7 314 9.7 19.3 0.00 0.69 0.20 86 1011.8
20260507234536 7 316 6.4 19.3 0.00 0.69 0.20 86 1012.0
20260507234021 7 302 6.4 24.1 0.00 0.69 0.20 86 1012.0
20260507233520 7 267 9.7 24.1 0.00 0.69 0.20 85 1012.0
20260507233039 7 328 8.0 17.7 0.00 0.69 0.20 86 1012.1
20260507232523 7 231 6.4 19.3 0.00 0.69 0.20 86 1012.1
20260507232021 7 257 6.4 19.3 0.00 0.69 0.20 86 1012.1
20260507231534 7 281 6.4 19.3 0.00 0.69 0.20 86 1012.1
20260507231020 7 313 8.0 19.3 0.00 0.69 0.20 86 1011.9
20260507230520 7 266 9.7 19.3 0.00 0.69 0.20 86 1012.1
20260507230047 7 280 6.4 17.7 0.00 0.69 0.20 87 1012.0
20260507225521 7 299 6.4 19.3 0.00 0.81 0.20 86 1011.9
20260507225021 7 289 9.7 19.3 0.00 0.81 0.20 86 1012.0
20260507224537 7 338 6.4 12.9 0.00 0.81 0.20 87 1011.9
20260507224026 7 356 4.8 11.3 0.00 0.81 0.20 89 1012.1
20260507223527 7 328 3.2 12.9 0.00 0.81 0.20 91 1011.9
20260507223106 7 333 3.2 14.5 0.00 0.81 0.20 92 1011.9
20260507222521 7 313 6.4 19.3 0.00 0.81 0.20 92 1011.9
20260507222018 7 48 6.4 19.3 0.00 0.81 0.20 92 1011.9
20260507221535 7 274 4.8 20.9 0.00 0.81 0.20 92 1011.8
20260507221022 7 268 9.7 20.9 0.00 0.81 0.20 91 1011.8
20260507220521 7 293 8.0 20.9 0.00 0.81 0.20 92 1011.7
20260507220035 7 310 9.7 20.9 0.00 0.81 0.20 91 1011.6
20260507215523 7 359 6.4 20.9 0.00 0.86 0.20 92 1011.6
20260507215020 7 326 8.0 16.1 0.00 0.86 0.20 91 1011.7
20260507214536 7 250 4.8 20.9 0.00 0.86 0.20 92 1011.6
20260507214020 7 9 4.8 20.9 0.00 0.86 0.20 92 1011.5
20260507213521 7 37 9.7 20.9 0.00 0.86 0.20 92 1011.5
20260507213039 7 301 6.4 19.3 0.00 0.86 0.20 93 1011.3
20260507212521 7 302 6.4 19.3 0.00 0.86 0.20 93 1011.3
20260507212021 7 270 4.8 22.5 0.00 0.86 0.20 93 1011.3
20260507211536 8 56 4.8 22.5 0.00 0.86 0.20 93 1011.1
20260507211019 8 310 8.0 16.1 0.00 0.86 0.20 93 1011.1
20260507210522 8 55 8.0 16.1 0.00 0.86 0.20 93 1010.9
20260507210042 8 303 4.8 17.7 0.00 0.86 0.20 92 1011.0
20260507205522 8 12 3.2 17.7 0.00 0.86 0.20 92 1010.9
20260507205021 8 312 8.0 17.7 0.00 0.86 0.20 92 1011.0
20260507204537 8 311 6.4 17.7 0.00 0.86 0.20 91 1010.8
20260507204021 9 349 8.0 19.3 0.00 0.86 0.20 90 1010.6
20260507203523 9 273 6.4 19.3 0.00 0.86 0.20 90 1010.6
20260507203038 9 299 8.0 19.3 0.00 0.86 0.20 90 1010.6
20260507202520 9 304 8.0 16.1 0.00 0.86 0.20 90 1010.6
20260507202023 9 257 6.4 16.1 0.00 0.86 0.20 91 1010.6
20260507201541 9 347 6.4 16.1 0.00 0.86 0.20 90 1010.7
20260507201029 10 315 4.8 16.1 0.00 0.86 0.20 90 1010.7
20260507200521 10 307 4.8 17.7 0.00 0.86 0.20 90 1010.6
20260507200050 10 329 4.8 17.7 0.00 0.86 0.20 91 1010.4
20260507195520 10 21 6.4 24.1 0.00 0.86 0.20 90 1010.4
20260507195021 10 335 4.8 24.1 0.00 0.86 0.20 90 1010.4
20260507194535 10 281 11.3 24.1 0.00 0.86 0.20 89 1010.6
20260507194020 10 313 9.7 24.1 0.00 0.86 0.20 88 1010.4
20260507193521 11 293 9.7 24.1 0.00 0.86 0.20 88 1010.3
20260507193046 11 312 8.0 24.1 0.00 0.86 0.20 88 1010.3
20260507192520 11 311 11.3 25.7 0.00 0.86 0.20 87 1010.1
20260507192020 11 326 9.7 25.7 0.00 0.86 0.20 89 1010.3
20260507191539 11 293 8.0 20.9 0.00 0.86 0.20 89 1010.2
20260507191022 11 358 9.7 24.1 0.00 0.86 0.20 89 1010.2
20260507190520 11 354 9.7 24.1 0.00 0.86 0.20 89 1010.3
20260507190038 11 302 6.4 25.7 0.00 0.86 0.20 90 1010.3
20260507185520 11 5 4.8 25.7 0.00 0.86 0.20 89 1010.3